Date String (YYYY-MM-DD hh:mm:ss) UTC,Instrument flags,Ambient pressure (hPa),Sample flow (lpm),Bypass flow (lpm),Sample temperature (°C),Ambient temperature (°C),ASC tube jacket temperature (°C),LED temperature (°C),Box temperature (°C),Sample RH (%),Span deviation,Mass concentration (μg/m³),Mass concentration (μg/m³),Mass concentration (μg/m³)
DateTimeUTC,F1_M11,P_M11,Q1_M11,Q2_M11,T1_M11,T2_M11,T3_M11,T4_M11,T5_M11,U1_M11,ZSPAN_M11,X2_M11,X0_M11,X1_M11
2023-05-13 18:00:00,,0836.8,5.00,0.00,28.0,26.7,00.0,36.2,29.6,21.3,0000.0,0000.91,0006.29,0000.73
2023-05-13 18:01:00,,0836.8,5.01,0.00,28.0,26.7,00.0,36.2,29.7,21.2,0000.0,0000.89,0007.27,0000.72
2023-05-13 18:02:00,,0836.8,5.00,0.00,28.0,26.7,00.0,36.2,29.6,20.9,0000.0,0000.88,0007.34,0000.71
2023-05-13 18:03:00,,0836.8,4.99,0.00,28.0,26.7,00.0,36.3,29.6,21.0,0000.0,0000.88,0007.32,0000.72
2023-05-13 18:04:00,,0836.8,5.00,0.00,28.0,26.7,00.0,36.3,29.6,21.1,0000.0,0000.89,0006.77,0000.73
2023-05-13 18:05:00,,0836.7,5.00,0.00,28.0,26.7,00.0,36.3,29.6,21.3,0000.0,0000.90,0006.38,0000.73
2023-05-13 18:06:00,,0836.8,5.00,0.00,28.0,26.7,00.0,36.3,29.7,21.9,0000.0,0000.93,0005.35,0000.72
2023-05-13 18:07:00,,0836.8,5.00,0.00,28.0,26.7,00.0,36.3,29.7,21.6,0000.0,0000.95,0006.48,0000.72
2023-05-13 18:08:00,,0836.8,5.00,0.00,28.0,26.7,00.0,36.3,29.7,21.6,0000.0,0000.94,0006.92,0000.71
2023-05-13 18:09:00,,0836.8,5.01,0.00,28.0,26.7,00.0,36.3,29.7,21.3,0000.0,0000.94,0006.92,0000.72
2023-05-13 18:10:00,,0836.8,5.00,0.00,28.1,26.8,00.0,36.3,29.7,21.6,0000.0,0000.92,0005.69,0000.72
2023-05-13 18:11:00,,0836.8,5.00,0.00,28.1,26.8,00.0,36.3,29.7,21.7,0000.0,0000.89,0004.16,0000.72
2023-05-13 18:12:00,,0836.8,5.00,0.00,28.1,26.8,00.0,36.3,29.7,20.9,0000.0,0000.88,0003.04,0000.72
2023-05-13 18:13:00,,0836.8,5.00,0.00,28.1,26.8,00.0,36.4,29.7,20.3,0000.0,0000.88,0002.99,0000.74
2023-05-13 18:14:00,,0836.8,4.99,0.00,28.1,26.8,00.0,36.4,29.8,20.5,0000.0,0000.90,0003.54,0000.75
2023-05-13 18:15:00,,0836.8,5.00,0.00,28.1,26.8,00.0,36.4,29.8,20.3,0000.0,0000.91,0003.56,0000.76
2023-05-13 18:16:00,,0836.8,5.00,0.00,28.1,26.9,00.0,36.4,29.8,20.2,0000.0,0000.92,0003.56,0000.77
2023-05-13 18:17:00,,0836.8,5.01,0.00,28.2,26.9,00.0,36.4,29.8,20.4,0000.0,0000.88,0003.31,0000.78
2023-05-13 18:18:00,,0836.8,5.00,0.00,28.2,26.9,00.0,36.4,29.8,20.2,0000.0,0000.89,0005.47,0000.79
2023-05-13 18:19:00,,0836.8,5.00,0.00,28.2,26.9,00.0,36.4,29.8,20.2,0000.0,0000.94,0007.85,0000.80
2023-05-13 18:20:00,,0836.8,5.00,0.00,28.2,26.9,00.0,36.4,29.8,20.7,0000.0,0000.97,0007.89,0000.80
2023-05-13 18:21:00,,0836.8,4.99,0.00,28.2,26.9,00.0,36.5,29.9,21.0,0000.0,0001.00,0007.93,0000.80
2023-05-13 18:22:00,,0836.8,4.99,0.00,28.2,27.0,00.0,36.5,29.9,20.8,0000.0,0001.01,0007.93,0000.81
2023-05-13 18:23:00,,0836.8,5.02,0.00,28.2,27.0,00.0,36.5,29.9,20.5,0000.0,0001.02,0007.95,0000.81
2023-05-13 18:24:00,,0836.8,5.01,0.00,28.2,27.0,00.0,36.5,29.9,21.0,0000.0,0001.00,0007.93,0000.80
2023-05-13 18:25:00,,0836.8,4.99,0.00,28.3,27.0,00.0,36.5,29.9,20.8,0000.0,0000.97,0007.65,0000.79
2023-05-13 18:26:00,,0836.8,5.00,0.00,28.3,26.9,00.0,36.5,29.9,20.8,0000.0,0000.97,0007.66,0000.78
2023-05-13 18:27:00,,0836.8,5.00,0.00,28.3,26.9,00.0,36.5,29.9,21.1,0000.0,0000.98,0007.95,0000.77
2023-05-13 18:28:00,,0836.7,5.00,0.00,28.3,26.9,00.0,36.5,29.9,21.4,0000.0,0000.96,0008.39,0000.76
2023-05-13 18:29:00,,0836.8,5.01,0.00,28.3,26.9,00.0,36.6,29.9,21.1,0000.0,0000.91,0005.19,0000.75
2023-05-13 18:30:00,,0836.8,5.00,0.00,28.3,27.0,00.0,36.6,29.9,21.0,0000.0,0000.89,0002.69,0000.74
2023-05-13 18:31:00,,0836.8,5.00,0.00,28.3,27.0,00.0,36.6,30.0,20.9,0000.0,0000.86,0002.65,0000.73
2023-05-13 18:32:00,,0836.8,5.00,0.00,28.3,27.0,00.0,36.6,30.0,21.2,0000.0,0000.83,0002.80,0000.73
2023-05-13 18:33:00,,0836.8,5.00,0.00,28.3,27.0,00.0,36.6,30.0,21.0,0000.0,0000.84,0003.01,0000.73
2023-05-13 18:34:00,,0836.8,5.01,0.00,28.3,26.9,00.0,36.6,30.0,21.5,0000.0,0000.84,0003.00,0000.73
2023-05-13 18:35:00,,0836.8,5.00,0.00,28.3,27.0,00.0,36.6,30.0,21.5,0000.0,0000.84,0003.01,0000.72
2023-05-13 18:36:00,,0836.8,5.01,0.00,28.3,27.0,00.0,36.6,30.0,21.5,0000.0,0000.84,0003.00,0000.73
2023-05-13 18:37:00,,0836.8,4.98,0.00,28.4,27.0,00.0,36.6,30.0,21.4,0000.0,0000.83,0002.86,0000.73
2023-05-13 18:38:00,,0836.7,5.00,0.00,28.4,27.1,00.0,36.7,30.0,21.1,0000.0,0000.81,0002.52,0000.73
2023-05-13 18:39:00,,0836.8,4.99,0.00,28.4,27.1,00.0,36.7,30.1,20.5,0000.0,0000.83,0001.48,0000.73
2023-05-13 18:40:00,,0836.8,5.00,0.00,28.4,27.1,00.0,36.7,30.1,20.4,0000.0,0000.84,0001.50,0000.74
2023-05-13 18:41:00,,0836.8,5.01,0.00,28.4,27.2,00.0,36.7,30.1,20.4,0000.0,0000.86,0001.54,0000.74
2023-05-13 18:42:00,,0836.8,5.00,0.00,28.4,27.2,00.0,36.7,30.1,20.5,0000.0,0000.88,0001.56,0000.74
2023-05-13 18:43:00,,0836.8,5.01,0.00,28.5,27.2,00.0,36.7,30.1,20.6,0000.0,0000.90,0001.46,0000.75
2023-05-13 18:44:00,,0836.8,4.99,0.00,28.5,27.2,00.0,36.7,30.1,20.8,0000.0,0000.89,0001.24,0000.74
2023-05-13 18:45:00,,0836.8,5.00,0.00,28.5,27.2,00.0,36.7,30.2,20.7,0000.0,0000.94,0001.33,0000.74
2023-05-13 18:46:00,,0836.8,5.00,0.00,28.5,27.3,00.0,36.8,30.2,20.8,0000.0,0000.98,0001.43,0000.74
2023-05-13 18:47:00,,0836.8,5.01,0.00,28.5,27.3,00.0,36.8,30.2,20.9,0000.0,0001.01,0001.48,0000.75
2023-05-13 18:48:00,,0836.8,5.00,0.00,28.5,27.3,00.0,36.8,30.2,20.6,0000.0,0001.02,0001.49,0000.75
2023-05-13 18:49:00,,0836.7,4.98,0.00,28.6,27.3,00.0,36.8,30.2,20.7,0000.0,0001.03,0001.53,0000.75
2023-05-13 18:50:00,,0836.7,5.00,0.00,28.6,27.3,00.0,36.8,30.2,20.7,0000.0,0001.02,0001.51,0000.75
2023-05-13 18:51:00,,0836.7,5.00,0.00,28.6,27.3,00.0,36.8,30.2,20.9,0000.0,0001.03,0001.51,0000.75
2023-05-13 18:52:00,,0836.7,5.00,0.00,28.6,27.3,00.0,36.8,30.2,21.4,0000.0,0001.01,0001.46,0000.75
2023-05-13 18:53:00,,0836.7,4.98,0.00,28.6,27.3,00.0,36.9,30.2,21.0,0000.0,0000.99,0001.40,0000.74
2023-05-13 18:54:00,,0836.6,5.00,0.00,28.6,27.3,00.0,36.9,30.3,21.1,0000.0,0001.00,0001.42,0000.73
2023-05-13 18:55:00,,0836.7,5.00,0.00,28.6,27.3,00.0,36.9,30.3,20.8,0000.0,0000.99,0001.37,0000.73
2023-05-13 18:56:00,,0836.8,5.00,0.00,28.6,27.3,00.0,36.9,30.3,20.6,0000.0,0000.94,0001.27,0000.72
2023-05-13 18:57:00,,0836.8,4.99,0.00,28.6,27.3,00.0,36.9,30.3,20.2,0000.0,0000.88,0001.14,0000.71
2023-05-13 18:58:00,,0836.8,4.99,0.00,28.7,27.3,00.0,36.9,30.3,19.9,0000.0,0000.87,0001.15,0000.71
2023-05-13 18:59:00,,0836.8,5.00,0.00,28.7,27.3,00.0,36.9,30.3,20.1,0000.0,0000.87,0001.18,0000.70
